Regional Weather Roundup
Issued by NWS Upton, NY

Current Version | Previous Version | Graphics & Text | Print | Product List | Glossary Off
Versions: 1 2 3 4 5 6 7 8 9 10 11 12 13 14 15 16 17 18 19 20 21 22 23 24 25 26 27 28 29 30 31 32 33 34 35 36 37 38 39 40 41 42 43 44 45 46 47 48 49 50

000
ASUS41 KOKX 230309
RWROKX

REGIONAL WEATHER ROUNDUP
NATIONAL WEATHER SERVICE NEW YORK NY
1100 PM EDT THU JUN 22 2017

NOTE: "FAIR" INDICATES FEW OR NO CLOUDS BELOW 12,000 FEET WITH NO
SIGNIFICANT WEATHER AND/OR OBSTRUCTIONS TO VISIBILITY.

NYZ071-072-176-178-NJZ106-104-230400-
NEW YORK CITY METRO AREA

CITY           SKY/WX    TMP DP  RH WIND       PRES   REMARKS
Central Park   CLOUDY    79  67  66 SW3       29.93F
Bronx Bot Gard   N/A     73  64  73 NE2       29.93R
LaGuardia APRT CLOUDY    80  70  71 SW9       29.90S
Kennedy INTL   CLOUDY    72  70  93 S7        29.92S
Breezy Point     N/A     70 N/A N/A S7          N/A
Newark/Liberty CLOUDY    80  69  69 S8        29.90S
Teterboro      CLOUDY    78  68  71 SW7       29.89S
$$

NYZ177-179-078>081-230400-
LONG ISLAND NEW YORK

CITY           SKY/WX    TMP DP  RH WIND       PRES   REMARKS
Jones Beach      N/A     70 N/A N/A SW5         N/A
Matinecock PT  NOT AVBL
Farmingdale    NOT AVBL
MacArthur/ISP  MOCLDY    72  70  93 SW8       29.92S
Shirley        CLOUDY    71  69  93 S6        29.93F
Mt Sinai Harb    N/A    N/A N/A N/A S12         N/A
Westhampton    CLOUDY    69  66  90 S5        29.95S
East Hampton   FAIR      67  65  93 S5        29.92F
Montauk          N/A     69  66  90 SW7       29.93F
$$

NYZ052-065-067-230400-
HUDSON VALLEY

CITY           SKY/WX    TMP DP  RH WIND       PRES   REMARKS
White Plains   CLEAR     72  64  78 CALM      29.91F
Larchmont Harb   N/A     70 N/A N/A SW2         N/A
Croton O-T Hud   N/A     75 N/A N/A MISG        N/A
Newburgh       PTCLDY    77  66  69 SW6       29.91S
Montgomery     MOCLDY    70  66  87 CALM      29.89F
Poughkeepsie   CLOUDY    74  63  68 SE3       29.87F
Albany         CLOUDY    72  61  68 CALM      29.86S
$$

NJZ001-105-106-008-010-013-015-019>022-104-230400-
NEW JERSEY

CITY           SKY/WX    TMP DP  RH WIND       PRES   REMARKS
Newark/Liberty CLOUDY    80  69  69 S8        29.90S
Teterboro      CLOUDY    78  68  71 SW7       29.89S
Caldwell       MOCLDY    81  67  62 SW5       29.91S
Somerville     CLOUDY    74  70  87 CALM      29.90S
Linden         FAIR      82  67  59 SW3       29.91S
Perth Amboy      N/A     79 N/A N/A SW9         N/A
Sussex         PTCLDY    73  68  84 CALM      29.91S
Andover          N/A     72  67  84 CALM      29.92F
Trenton        CLOUDY    80  69  69 SW6       29.92S
Millville      CLOUDY    77  75  93 SW3       29.95S
Atlantic City  PTCLDY    77  73  87 S6        29.95R
Wrightstown    CLEAR     76  71  84 SW8       29.91S
Toms River     CLOUDY    75  72  90 SW6       29.95S
Belmar         CLOUDY    77  70  79 SW6       29.94S
$$

PAZ047>061-062-071-230400-
EASTERN PENNSYLVANIA

CITY           SKY/WX    TMP DP  RH WIND       PRES   REMARKS
Philadelphia   CLOUDY    81  71  71 S6        29.93S
Allentown      CLOUDY    80  69  69 SW9       29.92S
Scranton       CLOUDY    77  68  73 SW8       29.94S
$$

CTZ002-004>006-009-010-012-RIZ004-006-007-MAZ004-011-015-230400-
SOUTHERN NEW ENGLAND
 IN CT

CITY           SKY/WX    TMP DP  RH WIND       PRES   REMARKS
Bradley INTL   CLOUDY    73  60  63 S6        29.90S
Hartford       CLOUDY    73  60  63 S8        29.90S
Danbury        CLOUDY    72  62  71 CALM      29.93R
Wtrbury/Oxford PTCLDY    70  57  64 S6        29.92F
Bridgeport     CLOUDY    74  65  73 SW5       29.91S
Meriden        CLOUDY    71  60  68 CALM      29.91S
New Haven      NOT AVBL
Chester        FAIR      70  63  78 SW7       29.93S
Groton         MOCLDY    67  62  84 CALM      29.92S
Wilimantic     MOCLDY    73  59  61 S5        29.92S

 IN RI

CITY           SKY/WX    TMP DP  RH WIND       PRES   REMARKS
Providence     CLOUDY    71  58  63 S7        29.93S
Block Island   CLEAR     67  65  93 SW14      29.94F
Westerly       PTCLDY    68  63  84 SW3       29.93F
 IN MA

CITY           SKY/WX    TMP DP  RH WIND       PRES   REMARKS
Boston         PTCLDY    73  60  63 S7        29.90S
Worcester      CLOUDY    71  57  61 SW13      29.93S
Westfield      NOT AVBL
Provincetown   CLOUDY    64  58  80 SW8       29.92S
Nantucket      CLOUDY    63  61  93 SW7       29.94S
$$

ANZ330-335-338-340-345-350-353-355-230400-
COASTAL MARINE OBSERVATIONS


STATION/POSITION TIME  SKY/WX   TEMP    WIND        PRES    VSBY  WAVE
                                AIR SEA DIR/SP/G                  HT/PER
                 (UTC)          (F)     (DEG/KT/KT) (MB)    (MI)  (FT/S)
NY HARB ENTRANCE 0150            69 66  200/ 14/ 14 1012.9          2/ 3
20 S FIRE ISLAND 0250            70 68  210/ 12/ 14 1012.9          2/ 5
GREAT SOUTH BAY  0230            72 76  220/  8/ 10   N/A
23 SSW MONTAUK P 0150            67 65              1014.3          2/ 5
15 E BARNEGAT LI 0230               65                N/A           2/ 6
HUDSON CANYON    0150            68 67  190/  8/ 10 1014.4          2/ 5
KINGS POINT      0230            73 65  210/  7/  7 1012.6
EXECUTION ROCKS  0245            71     190/  2/  4   N/A
CENTRAL LI SOUND 0215            72     200/ 14/ 16   N/A           1
EASTERN LI SOUND NOT AVBL
ROBBINS REEF     0224                   190/ 12/ 14 1013.3
$$


>>>>>>>>>>>>>>>>>>>>>>>>>>>> KEY <<<<<<<<<<<<<<<<<<<<<<<<<<<
>                                                          <
>     SKY/WX - Sky Condition/Present Weather               <
>     TMP    - Temperature in Fahrenheit                   <
>     DP     - Dew Point in Fahrenheit                     <
>     RH     - Relative Humidity in Percent                <
>     WIND   - Direction (from) and Speed in MPH           <
>     PRES   - Mean Sea Level Pressure (inches of Hg)      <
>     WCI    - Wind Chill Index                            <
>     VSB    - VISIBILITY IN MILES                         <
>     HX     - HEAT INDEX                                  <
>     TC     - TEMPERATURE IN CELSIUS                      <
>     VRB    - VARIABLE WIND DIRECTION                     <
>                                                          <
>>>>>>>>>>>>>>>>>>>>>>>>>>>> KEY <<<<<<<<<<<<<<<<<<<<<<<<<<<



USA.gov is the U.S. government's official web portal to all federal, state and local government web resources and services.